Content
SEND FEEDBACK

Daily
Averages
Monthly
Summary
Canada

VANCOUVER, BRITISH COLUMBIA


Home > North America > Canada > British Columbia
Elevation: 7 feet     Latitude: 49 11N     Longitude: 123 10W

WEATHER
 
SELECT A DAY
Number of Records: 249,253;   Date Range: 5/15/97 - 7/23/14
 
SHARE

PRINT THIS DATA

[ ← Previous Day ]
WEATHER ALMANAC - FEBRUARY 28, 2013
[ Next Day → ]
[ °C ]   °F
Weather ElementAverageHighLow
Temperature43.8 °F50 °F (10:35 pm)37.4 °F (12:35 am)
Dewpoint42.2 °F48.2 °F (6:55 pm)37.4 °F (12:35 am)
Humidity94.2 %100 % (12:35 am)87 % (4:35 am)
Barometer30.20 in30.26 in (12:35 am)30.15 in (6:55 pm)
Wind Speed5.7 mph12.7 mph (10:35 pm)
Wind Gust20.7 mph (6:55 pm)
Weather ElementAverage
Visibility7 mi
Wind DirectionESE (102.2 °)

Weather ElementTotal
Precipitation0.39 in
Heating Degree Days21.3 (Base 65)
Averaged from 68 records on February 28, 2013
WEATHER CONDITIONS BREAKOUT
WIND DIRECTION BREAKOUT
WEATHER BY HOUR - FEBRUARY 28, 2013
[ °C ]   °F
Local TimeTemperatureDewpointHumidityBarometerVisibilityWind DirectionWind SpeedGust SpeedPrecipitationEventsConditions
12:35 AM37.4 °F37.4 °F100 %30.26 in10.0 miCalmScattered Clouds
12:55 AM37.4 °F37.4 °F100 %30.26 in9.0 miCalmMostly Cloudy
1:15 AM39.2 °F37.4 °F93 %30.26 in8.0 miEast (80°)3.5 mphMostly Cloudy
1:35 AM41.0 °F39.2 °F93 %30.25 in10.0 miNorthMostly Cloudy
1:55 AM41.0 °F39.2 °F93 %30.25 in10.0 miNE (50°)4.6 mphMostly Cloudy
2:15 AM41.0 °F39.2 °F93 %30.26 in10.0 miENE (60°)4.6 mphMostly Cloudy
2:35 AM41.0 °F39.2 °F93 %30.25 in10.0 miNE (40°)4.6 mphOvercast
2:55 AM41.0 °F39.2 °F93 %30.24 in10.0 miNE (50°)4.6 mphMostly Cloudy
3:15 AM41.0 °F39.2 °F93 %30.22 in10.0 miEast (90°)4.6 mphPartly Cloudy
3:35 AM41.0 °F39.2 °F93 %30.21 in10.0 miENE (60°)6.9 mphScattered Clouds
4:15 AM41.0 °F39.2 °F93 %30.22 in10.0 miENE (60°)6.9 mphClear
4:35 AM41.0 °F37.4 °F87 %30.22 in10.0 miNE (40°)4.6 mphClear
4:55 AM41.0 °F37.4 °F87 %30.23 in10.0 miENE (60°)5.8 mphScattered Clouds
5:15 AM41.0 °F37.4 °F87 %30.22 in10.0 miNE (40°)5.8 mphMostly Cloudy
5:35 AM41.0 °F37.4 °F87 %30.21 in10.0 miNE (50°)4.6 mphOvercast
5:55 AM41.0 °F37.4 °F87 %30.21 in10.0 miNE (40°)5.8 mphRainLight Rain
6:15 AM41.0 °F37.4 °F87 %30.21 in10.0 miCalmMostly Cloudy
6:35 AM41.0 °F37.4 °F87 %30.20 in10.0 miCalmPartly Cloudy
7:15 AM41.0 °F37.4 °F87 %30.18 in10.0 miCalmRainLight Rain
7:35 AM41.0 °F37.4 °F87 %30.18 in10.0 miENE (70°)5.8 mphClear
7:55 AM41.0 °F37.4 °F87 %30.19 in10.0 miENE (60°)3.5 mphScattered Clouds
8:15 AM41.0 °F37.4 °F87 %30.18 in7.0 miENE (60°)8.1 mphRainLight Rain
8:35 AM41.0 °F39.2 °F93 %30.18 in5.0 miNE (50°)9.2 mphRainLight Rain
8:55 AM41.0 °F39.2 °F93 %30.17 in5.0 miENE (60°)5.8 mphRainLight Rain
9:15 AM41.0 °F39.2 °F93 %30.18 in5.0 miENE (60°)4.6 mphRainLight Rain
9:35 AM41.0 °F39.2 °F93 %30.17 in5.0 miENE (70°)6.9 mphRainLight Rain
9:55 AM41.0 °F39.2 °F93 %30.18 in4.0 miENE (60°)8.1 mphRainRain
10:15 AM41.0 °F39.2 °F93 %30.18 in4.0 miENE (60°)5.8 mphRainLight Rain
10:35 AM41.0 °F39.2 °F93 %30.17 in3.0 miENE (70°)4.6 mphRainRain
10:55 AM41.0 °F39.2 °F93 %30.17 in3.0 miNE (50°)5.8 mph0.01 inRainRain
11:15 AM41.0 °F39.2 °F93 %30.18 in3.0 miNNE (20°)5.8 mph0.01 inRainRain
11:35 AM41.0 °F39.2 °F93 %30.18 in3.0 miENE (60°)4.6 mph0.02 inRainRain
11:55 AM41.0 °F39.2 °F93 %30.19 in3.0 miNE (50°)5.8 mph0.03 inRainRain
12:15 PM41.0 °F39.2 °F93 %30.19 in2.5 miENE (60°)4.6 mph0.03 inRainRain
12:35 PM41.0 °F39.2 °F93 %30.20 in2.5 miENE (60°)5.8 mph0.04 inRainRain
12:55 PM41.0 °F41.0 °F100 %30.19 in4.0 miEast (100°)4.6 mph0.04 inRainLight Rain
1:15 PM41.0 °F41.0 °F100 %30.19 in5.0 miSE (140°)3.5 mphOvercast
1:35 PM41.0 °F41.0 °F100 %30.20 in8.0 miCalmOvercast
2:15 PM42.8 °F41.0 °F93 %30.20 in10.0 miESE (110°)3.5 mphOvercast
2:35 PM42.8 °F42.8 °F100 %30.21 in10.0 miEast (90°)3.5 mphOvercast
2:55 PM44.6 °F42.8 °F93 %30.20 in6.0 miCalmRainLight Rain
3:15 PM46.4 °F44.6 °F93 %30.21 in9.0 miSE (140°)4.6 mphMostly Cloudy
3:35 PM46.4 °F46.4 °F100 %30.20 in9.0 miSSE (160°)5.8 mphOvercast
3:55 PM46.4 °F46.4 °F100 %30.19 in3.0 miSouth (180°)6.9 mphRainLight Rain
4:15 PM48.2 °F46.4 °F93 %30.18 in9.0 miSouth (180°)9.2 mph16.1 mphMostly Cloudy
4:35 PM48.2 °F46.4 °F93 %30.18 in5.0 miSouth (180°)11.5 mph17.3 mphOvercast
4:55 PM48.2 °F46.4 °F93 %30.17 in5.0 miSouth (180°)6.9 mph19.6 mphOvercast
5:15 PM48.2 °F46.4 °F93 %30.16 in5.0 miSouth (180°)6.9 mphRainLight Rain
5:35 PM48.2 °F46.4 °F93 %30.16 in5.0 miSouth (170°)9.2 mph17.3 mphOvercast
5:55 PM48.2 °F46.4 °F93 %30.17 in4.0 miSouth (180°)9.2 mph16.1 mphRainLight Rain
6:15 PM48.2 °F46.4 °F93 %30.17 in4.0 miSouth (180°)9.2 mph0.01 inRainLight Rain
6:35 PM48.2 °F46.4 °F93 %30.16 in4.0 miSouth (190°)8.1 mph17.3 mph0.01 inRainLight Rain
6:55 PM48.2 °F48.2 °F100 %30.15 in5.0 miSouth (170°)9.2 mph20.7 mph0.01 inRainLight Rain
7:15 PM48.2 °F46.4 °F93 %30.16 in10.0 miSouth (190°)11.5 mph17.3 mphOvercast
7:35 PM48.2 °F46.4 °F93 %30.17 in10.0 miSouth (190°)11.5 mph17.3 mphOvercast
7:55 PM48.2 °F48.2 °F100 %30.18 in10.0 miSouth (180°)4.6 mphRainLight Rain
8:15 PM48.2 °F48.2 °F100 %30.19 in9.0 miSouth (190°)4.6 mphRainLight Rain
8:35 PM48.2 °F48.2 °F100 %30.20 in3.0 miSouth (170°)4.6 mphRainLight Rain
8:55 PM48.2 °F48.2 °F100 %30.20 in8.0 miSouth (180°)4.6 mph0.01 inRainLight Rain
9:15 PM48.2 °F48.2 °F100 %30.20 in7.0 miSSW (200°)8.1 mph0.01 inRainLight Rain
9:35 PM48.2 °F48.2 °F100 %30.20 in3.0 miSouth (180°)5.8 mph0.03 inRainRain
9:55 PM48.2 °F48.2 °F100 %30.21 in3.0 miSouth (190°)6.9 mph0.07 inRainLight Rain
10:15 PM48.2 °F48.2 °F100 %30.20 in6.0 miSouth (170°)5.8 mphRainLight Rain
10:35 PM50.0 °F48.2 °F94 %30.20 in10.0 miSSW (200°)12.7 mphMostly Cloudy
10:55 PM48.2 °F48.2 °F100 %30.22 in10.0 miSouth (190°)5.8 mphRainLight Rain
11:15 PM48.2 °F48.2 °F100 %30.23 in4.0 miSouth (180°)4.6 mph0.01 inRainRain
11:35 PM48.2 °F48.2 °F100 %30.24 in5.0 miSouth (180°)8.1 mph0.02 inRainLight Rain
11:55 PM48.2 °F48.2 °F100 %30.23 in3.0 miSouth (190°)8.1 mph0.03 inRainRain
Hourly data recorded from CZBB, located miles away from Vancouver, British Columbia







STORIES FROM OUR PARTNERS